Dyersburg, TN

5:47 AM CDT on May 28, 2018 (GMT -0500)
Dyersburg Municipal

Weather History for KDYR - October, 2013

Change the Weather History Date:

Tuesday, October 29, 2013

  Actual Average Record
Temperature  
Mean Temperature 58 °F -  
Max Temperature 69 °F 65 °F 82 °F (2004)
Min Temperature 48 °F 47 °F 30 °F (2005)
Degree Days  
Heating Degree Days 6    
Growing Degree Days 8 (Base 50)    
Moisture  
Dew Point 51 °F    
Average Humidity 70    
Maximum Humidity 77    
Minimum Humidity 60    
Precipitation  
Precipitation 0.00 in - - ()
Sea Level Pressure  
Sea Level Pressure 30.20 in    
Wind  
Wind Speed 3 mph (SE)    
Max Wind Speed 10 mph    
Max Gust Speed -    
Visibility 9 miles    
Events      
Averages and records for this station are not official NWS values.
T = Trace of Precipitation, MM = Missing Value Source: NWS Daily Summary

Daily Weather History Graph

Daily Weather History Graph

Search for Another Location

Airport or City:

Astronomy

Oct. 29, 2013 Rise Set
Actual Time 7:17 AM CDT 6:04 PM CDT
Civil Twilight 6:51 AM CDT 6:31 PM CDT
Nautical Twilight 6:20 AM CDT 7:01 PM CDT
Astronomical Twilight 5:51 AM CDT 7:30 PM CDT
Moon 2:16 AM CDT (10/29) 3:10 PM CDT (10/29)
Length of Visible Light 11h 39m
Length of Day
10h 47m
Waning Crescent, 25% of the Moon is Illuminated
Oct 29
Waning Crescent
Nov 3
New
Nov 9
First Quarter
Nov 17
Full
Nov 25
Last Quarter

Hourly Weather History & Observations

Time (CDT) Temp. Dew Point Humidity Pressure Visibility Wind Dir Wind Speed Gust Speed Precip Events Conditions
12:15 AM 51.8 °F 42.8 °F 71% 30.25 in 9.0 mi Calm Calm - N/A   Clear
12:35 AM 51.8 °F 42.8 °F 71% 30.26 in 8.0 mi Calm Calm - N/A   Clear
12:55 AM 50.0 °F 42.8 °F 76% 30.26 in 7.0 mi Calm Calm - N/A   Clear
1:15 AM 48.2 °F 41.0 °F 76% 30.25 in 5.0 mi Calm Calm - N/A   Clear
1:35 AM 48.2 °F 41.0 °F 76% 30.25 in 5.0 mi Calm Calm - N/A   Mostly Cloudy
1:55 AM 50.0 °F 42.8 °F 76% 30.25 in 6.0 mi ENE 3.5 mph - N/A   Overcast
2:15 AM 50.0 °F 42.8 °F 76% 30.25 in 6.0 mi Calm Calm - N/A   Overcast
2:35 AM 51.8 °F 42.8 °F 71% 30.25 in 5.0 mi Calm Calm - N/A   Overcast
2:55 AM 51.8 °F 44.6 °F 76% 30.25 in 5.0 mi Calm Calm - N/A   Overcast
3:15 AM 51.8 °F 44.6 °F 76% 30.25 in 5.0 mi ENE 3.5 mph - N/A   Overcast
3:35 AM 51.8 °F 44.6 °F 76% 30.25 in 6.0 mi East 3.5 mph - N/A   Overcast
3:55 AM 53.6 °F 44.6 °F 72% 30.25 in 5.0 mi Calm Calm - N/A   Overcast
4:15 AM 53.6 °F 44.6 °F 72% 30.25 in 5.0 mi Calm Calm - N/A   Overcast
4:35 AM 53.6 °F 46.4 °F 77% 30.26 in 7.0 mi Calm Calm - N/A   Overcast
4:55 AM 53.6 °F 46.4 °F 77% 30.25 in 7.0 mi ESE 3.5 mph - N/A   Overcast
5:15 AM 53.6 °F 46.4 °F 77% 30.27 in 7.0 mi Calm Calm - N/A   Overcast
5:35 AM 53.6 °F 46.4 °F 77% 30.26 in 8.0 mi Calm Calm - N/A   Overcast
5:55 AM 53.6 °F 46.4 °F 77% 30.26 in 7.0 mi Calm Calm - N/A   Overcast
6:15 AM 53.6 °F 44.6 °F 72% 30.26 in 7.0 mi Calm Calm - N/A   Overcast
6:35 AM 53.6 °F 46.4 °F 77% 30.25 in 7.0 mi East 3.5 mph - N/A   Overcast
6:55 AM 53.6 °F 44.6 °F 72% 30.24 in 7.0 mi Calm Calm - N/A   Overcast
7:15 AM 53.6 °F 46.4 °F 77% 30.24 in 7.0 mi ESE 3.5 mph - N/A   Overcast
7:35 AM 55.4 °F 46.4 °F 72% 30.24 in 7.0 mi East 3.5 mph - N/A   Overcast
7:55 AM 55.4 °F 46.4 °F 72% 30.25 in 6.0 mi Calm Calm - N/A   Overcast
8:15 AM 55.4 °F 46.4 °F 72% 30.25 in 7.0 mi Calm Calm - N/A   Overcast
8:35 AM 55.4 °F 46.4 °F 72% 30.25 in 8.0 mi East 4.6 mph - N/A   Mostly Cloudy
8:55 AM 57.2 °F 48.2 °F 72% 30.26 in 10.0 mi ESE 4.6 mph - N/A   Partly Cloudy
9:15 AM 59.0 °F 48.2 °F 67% 30.26 in 10.0 mi ESE 6.9 mph - N/A   Clear
9:35 AM 60.8 °F 50.0 °F 68% 30.27 in 10.0 mi SSE 6.9 mph - N/A   Clear
9:55 AM 60.8 °F 51.8 °F 72% 30.27 in 10.0 mi SE 5.8 mph - N/A   Scattered Clouds
10:15 AM 62.6 °F 51.8 °F 68% 30.28 in 10.0 mi SSE 4.6 mph - N/A   Mostly Cloudy
10:35 AM 62.6 °F 51.8 °F 68% 30.26 in 10.0 mi ESE 6.9 mph - N/A   Mostly Cloudy
10:55 AM 62.6 °F 51.8 °F 68% 30.24 in 10.0 mi SE 8.1 mph - N/A   Partly Cloudy
11:15 AM 64.4 °F 51.8 °F 64% 30.23 in 10.0 mi SE 6.9 mph - N/A   Clear
11:35 AM 64.4 °F 51.8 °F 64% 30.23 in 10.0 mi SE 5.8 mph - N/A   Clear
11:55 AM 64.4 °F 51.8 °F 64% 30.24 in 10.0 mi ESE 3.5 mph - N/A   Mostly Cloudy
12:15 PM 64.4 °F 53.6 °F 68% 30.24 in 10.0 mi East 3.5 mph - N/A   Overcast
12:35 PM 64.4 °F 53.6 °F 68% 30.22 in 10.0 mi ESE 8.1 mph - N/A   Mostly Cloudy
12:55 PM 66.2 °F 53.6 °F 64% 30.20 in 10.0 mi SE 10.4 mph - N/A   Partly Cloudy
1:15 PM 66.2 °F 53.6 °F 64% 30.18 in 10.0 mi ESE 5.8 mph - N/A   Partly Cloudy
1:35 PM 66.2 °F 53.6 °F 64% 30.19 in 10.0 mi SE 3.5 mph - N/A   Partly Cloudy
1:55 PM 68.0 °F 53.6 °F 60% 30.18 in 10.0 mi South 5.8 mph - N/A   Clear
2:15 PM 68.0 °F 53.6 °F 60% 30.17 in 10.0 mi SSE 6.9 mph - N/A   Partly Cloudy
2:35 PM 68.0 °F 53.6 °F 60% 30.16 in 10.0 mi SE 9.2 mph - N/A   Partly Cloudy
2:55 PM 68.0 °F 53.6 °F 60% 30.14 in 10.0 mi SE 8.1 mph - N/A   Mostly Cloudy
3:15 PM 68.0 °F 53.6 °F 60% 30.14 in 10.0 mi SSE 5.8 mph - N/A   Mostly Cloudy
3:35 PM 69.8 °F 55.4 °F 60% 30.14 in 10.0 mi SSE 5.8 mph - N/A   Scattered Clouds
3:55 PM 69.8 °F 55.4 °F 60% 30.14 in 10.0 mi SE 6.9 mph - N/A   Scattered Clouds
4:15 PM 69.8 °F 55.4 °F 60% 30.14 in 10.0 mi ESE 5.8 mph - N/A   Mostly Cloudy
4:35 PM 69.8 °F 55.4 °F 60% 30.13 in 10.0 mi ESE 5.8 mph - N/A   Mostly Cloudy
4:55 PM 69.8 °F 55.4 °F 60% 30.13 in 10.0 mi East 4.6 mph - N/A   Partly Cloudy
5:15 PM 69.8 °F 55.4 °F 60% 30.13 in 10.0 mi ESE 3.5 mph - N/A   Partly Cloudy
5:35 PM 68.0 °F 55.4 °F 64% 30.13 in 10.0 mi Calm Calm - N/A   Mostly Cloudy
5:55 PM 66.2 °F 55.4 °F 68% 30.14 in 10.0 mi NE 3.5 mph - N/A   Mostly Cloudy
6:15 PM 66.2 °F 55.4 °F 68% 30.14 in 10.0 mi ENE 4.6 mph - N/A   Mostly Cloudy
6:35 PM 64.4 °F 55.4 °F 73% 30.15 in 10.0 mi Calm Calm - N/A   Mostly Cloudy
6:55 PM 66.2 °F 55.4 °F 68% 30.16 in 10.0 mi Calm Calm - N/A   Overcast
7:15 PM 64.4 °F 55.4 °F 73% 30.16 in 9.0 mi Calm Calm - N/A   Overcast
7:35 PM 64.4 °F 55.4 °F 73% 30.15 in 8.0 mi Calm Calm - N/A   Overcast
7:55 PM 64.4 °F 55.4 °F 73% 30.15 in 10.0 mi SSE 4.6 mph - N/A   Overcast
8:15 PM 64.4 °F 55.4 °F 73% 30.14 in 10.0 mi SE 4.6 mph - N/A   Overcast
8:35 PM 66.2 °F 55.4 °F 68% 30.14 in 10.0 mi SSE 4.6 mph - N/A   Overcast
8:55 PM 66.2 °F 55.4 °F 68% 30.14 in 10.0 mi South 4.6 mph - N/A   Partly Cloudy
9:15 PM 66.2 °F 57.2 °F 73% 30.14 in 10.0 mi SSE 4.6 mph - N/A   Clear
9:35 PM 66.2 °F 57.2 °F 73% 30.14 in 10.0 mi SSE 3.5 mph - N/A   Clear
9:55 PM 66.2 °F 57.2 °F 73% 30.14 in 10.0 mi South 5.8 mph - N/A   Clear
10:15 PM 66.2 °F 57.2 °F 73% 30.15 in 10.0 mi South 5.8 mph - N/A   Clear
10:35 PM 66.2 °F 57.2 °F 73% 30.15 in 10.0 mi South 4.6 mph - N/A   Clear
10:55 PM 66.2 °F 57.2 °F 73% 30.15 in 10.0 mi South 6.9 mph - N/A   Scattered Clouds
11:15 PM 66.2 °F 55.4 °F 68% 30.15 in 10.0 mi South 5.8 mph - N/A   Mostly Cloudy
11:35 PM 66.2 °F 55.4 °F 68% 30.15 in 10.0 mi South 5.8 mph - N/A   Mostly Cloudy
11:55 PM 66.2 °F 55.4 °F 68% 30.15 in 10.0 mi South 8.1 mph - N/A   Scattered Clouds